Location: LDNL
(36.4545°S, 141.6685°E)
Time: 11:26:25
(UTC+10:00)

Explorer 7 - Pass Details

Date: 11 August 2022
Orbit: 482 x 668 km, 50.3° (Epoch: 26 September)

Event Time Altitude Azimuth Distance (km) Brightness Sun altitude
Rises 00:15:32 0° 226° (SW) 2,886 - -68.4°
Reaches altitude 10° 00:18:21 10° 210° (SSW) 1,941 - -68.5°
Maximum altitude 00:21:47 22° 160° (SSE) 1,301 - -68.7°
Drops below altitude 10° 00:25:04 10° 108° (ESE) 1,838 - -68.8°
Sets 00:27:39 0° 92° (E) 2,691 - -68.9°
